When you browse on this site, cookies collect data to enhance your experience and personalize the content and advertising you see.
Visit our Privacy Policy to learn more. By continuing to use the site, you agree to this use of cookies and data.
  • Em Portugal
  • Lista de países
  • Para 7 dias
  • Temperatura da água
  • Mapas de satélite
  • Mapa do tempo
  • Widgets de tempo
  • user-avatar
    Iniciar Sessão

    Previsão horária em Warszyn

    Hoje, 27 Maio, Segunda-feira

    Tempo Temperatura Precipitação Vento Pressão Humidade
    00:00 +14°C° 0 mm 3 m/s 742 mmHg 82%
    01:00 +14°C° 0 mm 3 m/s 742 mmHg 83%
    02:00 +14°C° 0.1 mm 3 m/s 742 mmHg 84%
    03:00 +14°C° 0.1 mm 3 m/s 742 mmHg 85%
    04:00 +14°C° 0.1 mm 4 m/s 741 mmHg 86%
    05:00 +15°C° 0 mm 4 m/s 741 mmHg 82%
    06:00 +16°C° 0 mm 5 m/s 741 mmHg 78%
    07:00 +17°C° 0 mm 5 m/s 741 mmHg 73%
    08:00 +17°C° 0.1 mm 5 m/s 741 mmHg 72%
    09:00 +17°C° 0.1 mm 6 m/s 742 mmHg 70%
    10:00 +19°C° 0.1 mm 6 m/s 742 mmHg 69%
    11:00 +17°C° 0.2 mm 5 m/s 742 mmHg 72%
    12:00 +17°C° 0.2 mm 5 m/s 742 mmHg 75%
    13:00 +18°C° 0.2 mm 4 m/s 742 mmHg 78%
    14:00 +18°C° 0.2 mm 3 m/s 742 mmHg 75%
    15:00 +18°C° 0.2 mm 3 m/s 742 mmHg 72%
    16:00 +19°C° 0.2 mm 2 m/s 742 mmHg 68%
    17:00 +18°C° 0 mm 2 m/s 742 mmHg 70%
    18:00 +17°C° 0 mm 2 m/s 742 mmHg 72%
    19:00 +16°C° 0 mm 2 m/s 742 mmHg 73%
    20:00 +15°C° 0 mm 2 m/s 742 mmHg 76%
    21:00 +14°C° 0 mm 2 m/s 742 mmHg 78%
    22:00 +13°C° 0 mm 2 m/s 742 mmHg 80%
    23:00 +13°C° 0 mm 2 m/s 742 mmHg 80%

    Amanhã, 28 Maio, Terça-feira

    Tempo Temperatura Precipitação Vento Pressão Humidade
    00:00 +13°C° 0 mm 2 m/s 742 mmHg 81%
    01:00 +13°C° 0 mm 2 m/s 741 mmHg 81%
    02:00 +13°C° 0.3 mm 2 m/s 741 mmHg 84%
    03:00 +13°C° 0.3 mm 2 m/s 741 mmHg 88%
    04:00 +12°C° 0.3 mm 2 m/s 740 mmHg 91%
    05:00 +11°C° 1.3 mm 3 m/s 740 mmHg 92%
    06:00 +11°C° 1.3 mm 3 m/s 740 mmHg 93%
    07:00 +11°C° 1.3 mm 3 m/s 740 mmHg 93%
    08:00 +11°C° 0.9 mm 3 m/s 740 mmHg 93%
    09:00 +11°C° 0.9 mm 3 m/s 740 mmHg 92%
    10:00 +10°C° 0.9 mm 3 m/s 740 mmHg 92%
    11:00 +11°C° 0.2 mm 3 m/s 741 mmHg 90%
    12:00 +11°C° 0.2 mm 3 m/s 741 mmHg 89%
    13:00 +13°C° 0.2 mm 2 m/s 741 mmHg 87%
    14:00 +13°C° 0 mm 2 m/s 742 mmHg 84%
    15:00 +14°C° 0 mm 2 m/s 742 mmHg 80%
    16:00 +15°C° 0 mm 2 m/s 742 mmHg 77%
    17:00 +14°C° 0 mm 2 m/s 743 mmHg 78%
    18:00 +14°C° 0 mm 2 m/s 743 mmHg 79%
    19:00 +13°C° 0 mm 2 m/s 743 mmHg 81%
    20:00 +12°C° 0 mm 2 m/s 744 mmHg 81%
    21:00 +10°C° 0 mm 3 m/s 744 mmHg 81%
    22:00 +9°C° 0 mm 3 m/s 744 mmHg 81%
    23:00 +9°C° 0 mm 3 m/s 745 mmHg 80%

    Depois de amanhã, 29 Maio, Quarta-feira

    Tempo Temperatura Precipitação Vento Pressão Humidade
    00:00 +9°C° 0 mm 3 m/s 745 mmHg 79%
    01:00 +9°C° 0 mm 3 m/s 745 mmHg 78%
    02:00 +8°C° 0 mm 3 m/s 746 mmHg 78%
    03:00 +8°C° 0 mm 3 m/s 746 mmHg 79%
    04:00 +8°C° 0 mm 3 m/s 747 mmHg 80%
    05:00 +8°C° 0 mm 3 m/s 747 mmHg 74%
    06:00 +8°C° 0 mm 4 m/s 748 mmHg 69%
    07:00 +10°C° 0 mm 4 m/s 748 mmHg 63%
    08:00 +11°C° 0 mm 4 m/s 749 mmHg 57%
    09:00 +12°C° 0 mm 4 m/s 749 mmHg 52%
    10:00 +13°C° 0 mm 4 m/s 750 mmHg 46%
    11:00 +14°C° 0 mm 4 m/s 750 mmHg 45%
    12:00 +14°C° 0 mm 4 m/s 751 mmHg 44%
    13:00 +14°C° 0 mm 4 m/s 751 mmHg 43%
    14:00 +14°C° 0 mm 4 m/s 751 mmHg 43%
    15:00 +14°C° 0 mm 4 m/s 751 mmHg 44%
    16:00 +14°C° 0 mm 4 m/s 752 mmHg 44%
    17:00 +13°C° 0 mm 3 m/s 752 mmHg 49%
    18:00 +11°C° 0 mm 3 m/s 752 mmHg 54%
    19:00 +10°C° 0 mm 3 m/s 752 mmHg 59%
    20:00 +9°C° 0 mm 2 m/s 753 mmHg 67%
    21:00 +7°C° 0 mm 2 m/s 753 mmHg 74%
    22:00 +7°C° 0 mm 1 m/s 753 mmHg 81%
    23:00 +6°C° 0 mm 1 m/s 753 mmHg 83%

    30 Maio, Quinta-feira

    Tempo Temperatura Precipitação Vento Pressão Humidade
    00:00 +6°C° 0 mm 1 m/s 753 mmHg 85%
    01:00 +6°C° 0 mm 1 m/s 753 mmHg 87%
    02:00 +5°C° 0 mm 1 m/s 753 mmHg 88%
    03:00 +5°C° 0 mm 1 m/s 753 mmHg 88%
    04:00 +5°C° 0 mm 1 m/s 753 mmHg 88%
    05:00 +7°C° 0 mm 1 m/s 753 mmHg 77%
    06:00 +9°C° 0 mm 0 m/s 753 mmHg 66%
    07:00 +11°C° 0 mm 0 m/s 753 mmHg 55%
    08:00 +14°C° 0 mm 1 m/s 753 mmHg 48%
    09:00 +15°C° 0 mm 1 m/s 753 mmHg 40%
    10:00 +16°C° 0 mm 2 m/s 753 mmHg 33%
    11:00 +17°C° 0 mm 2 m/s 753 mmHg 32%
    12:00 +18°C° 0 mm 2 m/s 753 mmHg 30%
    13:00 +19°C° 0 mm 2 m/s 753 mmHg 29%
    14:00 +20°C° 0 mm 2 m/s 752 mmHg 31%
    15:00 +20°C° 0 mm 3 m/s 752 mmHg 32%
    16:00 +20°C° 0 mm 3 m/s 752 mmHg 34%
    17:00 +19°C° 0 mm 2 m/s 751 mmHg 41%
    18:00 +18°C° 0 mm 2 m/s 751 mmHg 49%
    19:00 +17°C° 0 mm 2 m/s 751 mmHg 56%
    20:00 +15°C° 0 mm 2 m/s 751 mmHg 62%
    21:00 +14°C° 0 mm 2 m/s 751 mmHg 68%
    22:00 +12°C° 0 mm 3 m/s 751 mmHg 73%
    23:00 +12°C° 0 mm 3 m/s 751 mmHg 72%

    31 Maio, Sexta-feira

    Tempo Temperatura Precipitação Vento Pressão Humidade
    00:00 +12°C° 0 mm 3 m/s 751 mmHg 71%
    01:00 +12°C° 0 mm 3 m/s 752 mmHg 71%
    02:00 +12°C° 0 mm 2 m/s 752 mmHg 77%
    03:00 +12°C° 0 mm 2 m/s 752 mmHg 83%
    04:00 +11°C° 0 mm 1 m/s 752 mmHg 89%
    05:00 +12°C° 0.1 mm 2 m/s 752 mmHg 86%
    06:00 +13°C° 0.1 mm 2 m/s 752 mmHg 84%
    07:00 +14°C° 0.1 mm 2 m/s 753 mmHg 82%
    08:00 +14°C° 0.5 mm 1 m/s 753 mmHg 84%
    09:00 +14°C° 0.5 mm 1 m/s 753 mmHg 85%
    10:00 +13°C° 0.5 mm 0 m/s 753 mmHg 87%
    11:00 +14°C° 0.1 mm 0 m/s 753 mmHg 81%
    12:00 +16°C° 0.1 mm 0 m/s 753 mmHg 75%
    13:00 +19°C° 0.1 mm 1 m/s 754 mmHg 69%
    14:00 +18°C° 0.1 mm 1 m/s 753 mmHg 74%
    15:00 +16°C° 0.1 mm 2 m/s 753 mmHg 80%
    16:00 +15°C° 0.1 mm 2 m/s 753 mmHg 86%
    17:00 +15°C° 0 mm 2 m/s 754 mmHg 86%
    18:00 +14°C° 0 mm 2 m/s 754 mmHg 86%
    19:00 +14°C° 0 mm 2 m/s 754 mmHg 86%
    20:00 +14°C° 0 mm 2 m/s 754 mmHg 86%
    21:00 +13°C° 0 mm 2 m/s 754 mmHg 86%
    22:00 +12°C° 0 mm 2 m/s 754 mmHg 86%
    23:00 +12°C° 0.1 mm 2 m/s 755 mmHg 86%

    1 Junho, Sábado

    Tempo Temperatura Precipitação Vento Pressão Humidade
    00:00 +12°C° 0.1 mm 1 m/s 755 mmHg 86%
    01:00 +11°C° 0.1 mm 1 m/s 755 mmHg 86%
    02:00 +11°C° 0.1 mm 1 m/s 755 mmHg 88%
    03:00 +11°C° 0.1 mm 1 m/s 755 mmHg 89%
    04:00 +11°C° 0.1 mm 1 m/s 755 mmHg 90%
    05:00 +11°C° 0.1 mm 1 m/s 755 mmHg 90%
    06:00 +11°C° 0.1 mm 1 m/s 755 mmHg 89%
    07:00 +11°C° 0.1 mm 1 m/s 756 mmHg 88%
    08:00 +13°C° 0 mm 1 m/s 756 mmHg 81%
    09:00 +15°C° 0 mm 1 m/s 756 mmHg 73%
    10:00 +16°C° 0 mm 0 m/s 756 mmHg 66%
    11:00 +17°C° 0 mm 0 m/s 756 mmHg 63%
    12:00 +18°C° 0 mm 0 m/s 756 mmHg 60%
    13:00 +19°C° 0 mm 0 m/s 756 mmHg 57%
    14:00 +20°C° 0 mm 1 m/s 755 mmHg 61%
    15:00 +19°C° 0 mm 1 m/s 755 mmHg 64%
    16:00 +19°C° 0 mm 1 m/s 755 mmHg 67%
    17:00 +18°C° 0 mm 1 m/s 755 mmHg 70%
    18:00 +16°C° 0 mm 1 m/s 755 mmHg 73%
    19:00 +16°C° 0 mm 1 m/s 755 mmHg 76%
    20:00 +15°C° 0 mm 1 m/s 755 mmHg 78%
    21:00 +14°C° 0 mm 1 m/s 755 mmHg 81%
    22:00 +12°C° 0 mm 0 m/s 755 mmHg 83%
    23:00 +11°C° 0 mm 0 m/s 755 mmHg 86%
    Mostrar mais